Overview Statistics Trail Chart Weather Telemetry Raw packets
 

This is the latest recevied weather packets stored in our database for station/object HP1CDW-11. If no packets are shown the sender has not sent any weather packets the latest 10 day(s).

<< 50 51 52 53 54 55 56 >>
Time Temp. Humidity Pressure Rain* Wind** Luminosity Snow
1787945756 32.78° C 57% 1006.9 hPa - - - -
1787945155 32.78° C 56% 1006.9 hPa - - - -
1787944555 32.78° C 56% 1007.2 hPa - - - -
1787943955 32.78° C 55% 1007.4 hPa - - - -
1787943355 32.78° C 55% 1007.7 hPa - - - -
1787942754 32.78° C 55% 1007.8 hPa - - - -
1787942154 32.78° C 55% 1008 hPa - - - -
1787941554 32.22° C 55% 1008.1 hPa - - - -
1787940953 32.22° C 56% 1008.3 hPa - - - -
1787940353 32.22° C 56% 1008.4 hPa - - - -
1787939753 32.22° C 56% 1008.3 hPa - - - -
1787939152 32.22° C 55% 1008.3 hPa - - - -
1787938552 32.22° C 54% 1008.2 hPa - - - -
1787937952 32.22° C 55% 1008.2 hPa - - - -
1787937352 32.22° C 54% 1008.2 hPa - - - -
1787936751 32.22° C 54% 1008.3 hPa - - - -
1787936151 32.22° C 52% 1008.2 hPa - - - -
1787935550 31.67° C 53% 1008.2 hPa - - - -
1787934950 31.67° C 51% 1008.2 hPa - - - -
1787934354 31.67° C 49% 1008.2 hPa - - - -
1787933749 31.67° C 48% 1008.4 hPa - - - -
1787933149 31.67° C 45% 1008.6 hPa - - - -
1787932549 31.67° C 42% 1008.8 hPa - - - -
1787931949 31.11° C 38% 1009 hPa - - - -
1787931348 30.56° C 39% 1009 hPa - - - -

* Rain since midnight (hover to see other rain measurements)
** Current wind speed in m/s (hover to see current wind gust speed)